Location: Newark
(63.1158°N, 8.1461°E)
Time: 19:57:51
(UTC+00:00)

Envisat - Pass Details

Date: 14 December 2019
Orbit: 764 x 766 km, 98.1° (Epoch: 19 January)

Event Time Altitude Azimuth Distance (km) Brightness Sun altitude
Rises 18:32:20 0° 207° (SSW) 3,230 6.5 -28.5°
Reaches altitude 10° 18:35:07 10° 222° (SW) 2,308 5.9 -28.8°
Maximum altitude 18:39:05 23° 274° (W) 1,611 5.3 -29.3°
Drops below altitude 10° 18:43:06 10° 326° (NW) 2,320 5.9 -29.7°
Sets 18:45:54 0° 341° (NNW) 3,251 6.6 -30.0°
